Location: Busso
(41.5500°N, 14.5500°E)
Time: 02:46:52
(UTC+00:00)

Daily predictions for brighter satellites

Satellite Brightness Start Highest point End
(mag) Time Altitude Azimuth Time Altitude Azimuth Time Altitude Azimuth
Cosmos 1862 3.8 00:07:57 50° NNW 00:07:57 50° NNW 00:10:49 10° N
Cosmos 494 Rocket 4.3 00:02:35 10° NNW 00:07:47 61° ENE 00:09:17 43° SE
Cosmos 2297 Rocket 2.6 00:06:47 10° NNW 00:12:23 60° ENE 00:15:01 31° SE
Cosmos 1782 4.0 00:09:33 10° NNW 00:11:51 31° NW 00:11:51 31° NW
Cosmos 1726 Rocket 3.5 00:11:21 10° N 00:15:52 78° W 00:15:54 78° WSW
CZ-2D R/B 4.2 00:14:05 10° NE 00:17:24 17° E 00:19:52 13° ESE
Cosmos 2058 4.3 00:18:00 27° WNW 00:18:00 27° WNW 00:20:59 10° NNW
Cosmos 2112 Rocket 3.9 00:12:27 10° NNW 00:17:43 77° WSW 00:18:23 66° SSW
Cosmos 1892 Rocket 3.4 00:18:39 78° WNW 00:18:39 78° WNW 00:22:56 10° N
BREEZE M DEB (TANK) 4.1 00:00:01 10° SW 00:19:19 81° SSE 00:23:58 10° ENE
Cosmos 1980 Rocket 3.7 00:23:29 21° SE 00:25:17 25° ESE 00:29:43 10° NE
Spot 2 3.8 00:29:12 77° SE 00:29:26 82° ENE 00:33:31 10° NNW
Resurs 1-4 Rocket 3.7 00:27:42 10° NE 00:32:05 26° E 00:34:32 18° SE
Cosmos 1680 Rocket 3.9 00:28:03 10° NNW 00:33:04 45° WSW 00:33:13 45° WSW
H-2A R/B 3.0 00:34:14 40° WNW 00:34:14 40° WNW 00:37:02 10° NNW
Cosmos 1697 Rocket 2.8 00:32:50 49° S 00:34:14 68° ESE 00:39:52 10° NNE
RESURS DK-1 2.2 00:31:00 10° NNW 00:34:57 84° NE 00:34:57 84° NE
SeaSat 1 3.0 00:31:58 22° SE 00:35:01 55° ENE 00:39:49 10° NNW
Cosmos 1656 4.4 00:33:45 34° WSW 00:35:28 43° WNW 00:40:47 10° NNE
Cosmos 1626 Rocket 4.1 00:35:07 44° SE 00:35:49 49° E 00:40:02 10° NNE
Tiangong 0.5 00:38:11 15° E 00:38:11 15° E 00:38:53 10° E
Cosmos 2227 Rocket 3.0 00:38:21 10° NNW 00:43:52 49° ENE 00:49:20 10° SE
FENGYUN 3A 4.3 00:39:09 10° NNE 00:44:20 47° E 00:46:28 31° SSE
MSX 3.8 00:40:33 10° NNE 00:46:18 76° ESE 00:48:21 42° S
Cosmos 1356 Rocket 3.4 00:43:43 10° NNW 00:47:29 60° W 00:47:29 60° W
Cosmos-2242 2.8 00:48:16 10° N 00:52:28 89° WSW 00:53:05 64° S
ISS -1.0 00:53:25 10° NW 00:56:04 21° NNE 00:58:41 10° ENE
H-2A R/B 2.5 00:53:02 10° NNE 00:57:07 53° E 00:58:12 41° SSE
Cosmos 1441 Rocket 4.0 00:58:03 35° WNW 00:58:03 35° WNW 01:01:00 10° N
USA 32 4.0 00:59:07 39° S 01:01:06 80° E 01:06:21 10° N
NPP 3.6 00:58:43 10° NNE 01:04:08 84° WNW 01:06:09 40° SSW
Cosmos 1125 Rocket 3.4 01:06:12 42° SSW 01:08:04 89° ESE 01:13:23 10° NNE
ALOS 3.7 01:04:17 10° NE 01:08:19 30° E 01:10:57 18° SE
DELTA 2 R/B (1) 3.5 01:07:25 34° WSW 01:09:49 69° S 01:15:23 10° E
CZ-2C R/B 3.9 01:11:03 24° WSW 01:11:33 24° W 01:15:58 10° NW
Cosmos 2221 3.6 01:09:01 10° N 01:13:04 41° ENE 01:16:11 16° SE
Cosmos 2151 3.7 01:15:36 27° SSE 01:17:29 47° E 01:21:28 10° NNE
Cosmos 2369 4.4 01:19:12 23° SSE 01:22:25 45° ESE 01:27:46 10° NE
Cosmos 1048 Rocket 4.3 01:19:46 10° NNW 01:24:55 48° WSW 01:26:52 33° SSW
Cosmos 2058 Rocket 4.2 01:21:20 10° NNW 01:25:05 27° W 01:25:27 27° W
Cosmos 1315 Rocket 3.9 01:22:09 10° NW 01:25:07 26° W 01:25:07 26° W
Molniya-1 3.9 01:24:35 35° SSE 01:25:29 45° ESE 01:30:32 10° NE
IDEFIX/ARIANE 42P 3.3 01:25:17 10° N 01:30:06 40° WNW 01:32:15 27° WSW
USA 234 4.2 01:26:57 10° ENE 01:32:49 35° SE 01:36:53 18° S
Cosmos 1812 Rocket 3.5 01:29:03 10° N 01:33:28 89° WSW 01:35:56 25° S
Lacrosse 5 rocket 4.5 01:35:22 10° NNW 01:37:32 14° NNE 01:39:41 10° NE
Cosmos 2219 3.7 01:36:44 10° NNW 01:42:23 62° ENE 01:47:57 10° SE
SL-16 R/B 4.0 01:39:40 10° SSE 01:44:04 24° ESE 01:48:31 10° NE
SL-16 R/B 3.7 01:38:20 10° SE 01:44:10 44° ENE 01:50:03 10° N
ADEOS II 2.1 01:41:15 10° NNE 01:46:31 78° ESE 01:50:13 20° S
Cosmos 921 Rocket 4.0 01:43:35 10° N 01:47:53 47° ENE 01:52:06 10° SE
Cosmos 1825 Rocket 3.5 01:45:38 23° S 01:48:15 79° E 01:52:35 10° N
Envisat 3.2 01:44:11 10° NNE 01:49:15 68° ESE 01:53:08 17° S
Cosmos 2263 Rocket 2.2 01:44:00 10° NNW 01:49:41 84° ENE 01:55:16 10° SSE
NOAA 11 4.2 01:44:39 10° NNE 01:50:09 83° ESE 01:54:10 19° S
Cosmos 1238 Rocket 3.4 01:48:40 10° N 01:53:58 82° W 01:58:34 13° S
Gbstr 26 Del rocket 4.4 01:47:50 10° NW 01:54:29 79° NNE 02:02:13 10° ESE
Cosmos 2297 Rocket 3.6 01:52:01 10° WNW 01:55:51 19° W 01:56:44 18° WSW
CZ-2D R/B 2.2 01:52:37 10° N 01:57:46 59° WNW 02:01:07 21° SW
DMSP B5D2-2 4.4 01:54:23 10° SSE 01:59:34 69° ENE 02:04:47 10° N
Cosmos 1076 Rocket 4.0 01:57:37 13° S 02:01:21 59° E 02:05:33 10° NNE
BREEZE-M DEB (TANK) 1.5 02:02:20 10° WNW 02:04:30 86° NNE 02:07:25 10° ESE
OAO 2 Rocket 4.2 02:02:36 22° SSW 02:04:55 32° SSE 02:09:24 10° ESE
Meteor 1-27 Rocket 4.4 01:59:25 10° N 02:05:17 59° ENE 02:11:06 10° SSE
Cosmos 1980 Rocket 2.7 02:05:14 19° SW 02:08:55 46° WNW 02:14:19 10° NNE
Meteor 1-25 Rocket 4.3 02:06:25 11° S 02:11:43 80° E 02:17:21 10° NNE
Resurs 1-4 Rocket 2.8 02:07:00 10° N 02:11:57 41° WNW 02:15:34 17° SW
SeaSat 1 3.8 02:11:34 18° WSW 02:12:40 19° WSW 02:16:09 10° WNW
Tiangong -2.1 02:10:34 19° W 02:12:46 84° S 02:16:03 10° E
Meteor 1-10 Rocket 4.2 02:09:02 10° NNW 02:14:43 76° W 02:20:29 10° S
Cosmos 1697 Rocket 4.4 02:14:38 10° W 02:18:43 20° NW 02:22:50 10° N
Cosmos 2181 Rocket 4.1 02:13:04 10° N 02:19:17 81° E 02:25:23 10° S
CZ-3 Stage 3 4.4 02:13:44 12° SSW 02:20:23 34° SE 02:42:53 10° E
Cosmos 1842 Rocket 4.2 02:16:10 10° N 02:20:33 57° E 02:24:51 10° SSE
H-2A R/B 2.5 02:16:34 10° NNE 02:21:28 55° E 02:26:14 10° S
Cosmos 1346 Rocket 2.6 02:19:15 17° SSW 02:21:58 65° W 02:25:37 10° N
BlueWalker 3 2.3 02:22:42 10° NW 02:26:19 61° NE 02:29:54 10° ESE
Cosmos 2227 Rocket 3.3 02:23:07 10° NW 02:27:31 24° WSW 02:31:20 12° SSW
CENTAUR R/B 3.6 02:25:44 10° S 02:30:26 34° ESE 02:36:06 10° NE
AQUA 3.9 02:27:17 10° N 02:31:57 64° WNW 02:36:29 10° SSW
H-2A R/B 4.1 02:29:52 10° NNW 02:32:06 14° WNW 02:34:22 10° W
ISS -3.8 02:29:47 10° NW 02:33:09 90° WSW 02:36:30 10° SE
Cosmos 2278 4.1 02:29:16 10° S 02:34:47 63° ESE 02:40:23 10° NNE
SL-23 DEB 4.0 02:37:57 11° WSW 02:40:49 51° NNW 02:44:31 10° NE
ATLAS 2AS CENTAUR R/B 2.6 02:34:07 10° NW 02:40:51 76° WSW 02:47:31 10° SSE
USA 290 3.0 02:38:01 10° NW 02:41:00 32° WSW 02:43:57 10° S
ACS3 Solar Sail 4.4 02:39:04 10° NE 02:42:17 15° E 02:45:32 10° ESE
CZ-2C R/B 3.2 02:38:49 10° NNE 02:43:40 53° E 02:48:36 10° S
Cosmos 1842 3.4 02:41:34 10° N 02:44:56 61° E 02:48:17 10° SSE
ALOS 3.4 02:41:23 10° N 02:45:12 27° WNW 02:49:01 10° SW
GENESIS II 3.4 02:43:41 13° SW 02:45:58 59° NW 02:48:41 10° NNE
Cosmos 2360 Rocket 3.4 02:42:05 10° S 02:47:15 39° ESE 02:52:26 10° NE
Cosmos 1743 3.6 02:45:31 12° SW 02:48:07 26° WNW 02:51:01 10° NNW
Cosmos 1844 Rocket 3.7 02:43:54 10° NNW 02:49:25 52° ENE 02:54:51 10° SE
Cosmos 2221 4.2 02:47:14 10° NW 02:49:47 16° W 02:52:20 10° WSW
Alouette 2 Rocket 3.6 02:47:08 10° SSW 02:50:58 78° WNW 02:56:15 10° N
UNK 3.9 02:50:08 10° SSE 02:54:38 78° ENE 02:59:11 10° N
DELTA 2 R/B (1) 3.6 02:50:32 10° W 02:56:04 66° S 03:01:37 10° ESE
Cosmos 1140 Rocket 4.0 02:52:40 10° NNW 02:57:48 67° ENE 03:02:55 10° SSE
USA 281 3.7 02:54:04 10° NNE 03:00:34 61° ESE 03:07:03 10° S
Cosmos 2322 Rocket 2.7 02:57:16 10° S 03:02:50 64° ESE 03:08:25 10° NNE
Hubble Space Telescope 2.8 03:02:54 10° SSW 03:04:12 11° S 03:05:29 10° SSE
Nadezhda 3 Rocket 4.1 02:59:05 10° N 03:05:23 88° W 03:11:34 10° S
Cosmos 2333 Rocket 2.5 03:02:15 10° SSW 03:07:56 74° ESE 03:13:39 10° NNE
CZ-3 R/B 3.7 03:02:53 10° W 03:29:47 46° SSW 03:37:51 10° SE
